Simultaneous Nadir Overpasses (SNOs) Predictions

Prediction of SNOs between METOP-B and TERRA Satellite Orbit:

Table of predicted SNOs for the next 14.0 days since TLE Epoch: 6/29/2019
Index Date (METOP-B) Time (METOP-B) Lat,Lon (METOP-B) SZA (METOP-B ) Date (TERRA) Time (TERRA) Lat,Lon (TERRA) SZA (TERRA ) Distance(km) Time Diff (sec)
1 06/30/2019 16:58:32 81.31, -27.24 61.00 06/30/2019 16:58:50 81.31, -27.34 60.99 1.52 18
2 06/30/2019 17:49:13 -81.31, 140.06 119.01 06/30/2019 17:48:17 -81.31, 140.22 119.02 2.69 56
3 07/03/2019 12:32:53 81.31, 39.37 61.21 07/03/2019 12:33:04 81.32, 39.20 61.19 2.90 11
4 07/03/2019 13:23:34 -81.31,-153.32 118.80 07/03/2019 13:22:31 -81.31,-153.21 118.82 1.89 63
5 07/06/2019 08:07:16 81.31, 105.59 61.42 07/06/2019 08:07:20 81.32, 105.63 61.43 0.85 4
6 07/06/2019 08:57:56 -81.31, -86.71 118.53 07/06/2019 08:56:47 -81.31, -86.75 118.57 0.62 69
7 07/09/2019 02:50:59 -81.30, 4.22 118.35 07/09/2019 02:52:11 -81.31, 4.27 118.31 1.03 72
8 07/09/2019 03:41:39 81.31, 171.79 61.69 07/09/2019 03:41:37 81.31, 171.93 61.70 2.42 2
9 07/09/2019 04:32:03 -81.34, -14.21 117.50 07/09/2019 04:30:49 -81.58, -14.54 117.45 26.86 74
10 07/11/2019 22:25:21 -81.30, 70.41 118.04 07/11/2019 22:26:28 -81.30, 70.49 118.00 1.53 67




NCC Satellite Simultaneous Nadir Overpasses (SNOs) Prediction Service
